    Orbital elements:
    2007 YN56                                                Earth MOID = 0.0424 AU
    Epoch 2007 Oct. 27.0 TT = JDT 2454400.5                 MPC
    M  11.15242              (2000.0)            P               Q
    n   0.87952487     Peri.  251.71709     +0.96826911     +0.15378770
    a   1.0788738      Node    99.07520     -0.07422692     +0.92964062
    e   0.3311532      Incl.   11.50685     -0.23863213     +0.33483976
    P   1.12           H   23.0           G   0.15           U   7
    Residuals in seconds of arc
    071230 704  0.5+  0.8+    071231 701  0.1+  0.8+    071231 143  0.7+  0.3-
    071230 704  0.6+  0.2-    071231 704  0.0   0.2-    071231 143  0.4+  0.1+
    071230 704  0.1+  0.9+    071231 704  0.1-  0.4-    071231 143  0.7+  0.4-
    071230 704  0.0   0.5-    071231 704  0.2+  0.3-    071231 A24  0.2+  0.3+
    071230 704  0.3+  0.2+    071231 704  0.4+  0.1-    071231 A24  0.2+  0.2+
    071230 147  0.0   0.0     071231 701  0.8+  0.1+    071231 A24  0.5+  0.0
    071230 147  0.6-  0.1-    071231 704  0.6-  0.0     071231 A24  0.7+  0.3-
    071230 147  0.4+  0.0     071231 651  0.2-  0.3+    071231 A24  1.0+  0.1-
    071230 147  0.1+  0.2-    071231 704  0.7-  0.3-    071231 A24  0.1+  0.7+
    071231 147  0.1+  0.1-    071231 651  0.2+  0.2-    071231 A24  0.3+  0.2-
    071231 147  0.4-  0.1-    071231 651  0.1-  0.3+    080101 701  0.1-  0.7-
    071231 595  0.7-  0.7-    071231 704  0.3-  0.8-    080101 701  0.4-  2.5+
    071231 595  0.2-  0.2+    071231 704  0.0   0.4-    080101 701  0.0   0.8-
    071231 595  1.1-  0.6+    071231 704  0.1-  0.3-    080101 701  2.3-  2.0+
    071231 204  0.1+  0.2-    071231 704  0.7+  0.5+    080101 701  0.0   0.8-
    071231 204  0.0   0.3-    071231 704  0.8+  0.1+    080101 G96  0.1-  0.1+
    071231 204  0.0   0.5-    071231 673  0.1+  0.3-    080101 G96  0.1-  0.0
    071231 H55  0.1-  0.3-    071231 673  0.9-  2.6+    080101 G96  0.1-  0.0
    071231 H55  0.4-  0.1+    071231 673  0.4-  0.7-    080101 A17  0.2+  0.2-
    071231 H55  0.7-  0.2-    071231 673  0.9-  0.8+    080101 A17  0.1+  0.5-
    071231 704  1.0+  0.4+    071231 474  0.1+  0.3+    080101 A17  0.3+  0.4-
    071231 704  0.1+  0.7-    071231 474  0.2+  0.2+
    071231 704  0.1+  0.5-    071231 474  0.2+  0.1-
    
    Ephemeris:
    2007 YN56                a,e,i = 1.08, 0.33, 12                  q = 0.7216
    Date    TT    R. A. (2000) Decl.     Delta      r     Elong.  Phase     V
    2007 12 26    05 39.85   +00 36.8    0.0550   1.034   155.6    23.2    17.9
    2007 12 28    05 34.28   +09 53.8    0.0647   1.045   161.9    17.0    18.1
    2007 12 30    05 30.18   +16 38.8    0.0758   1.056   163.7    15.2    18.4
    2008 01 01    05 27.14   +21 37.7    0.0879   1.067   162.5    16.1    18.7
    2008 01 03    05 24.89   +25 23.0    0.101    1.078   160.1    18.1    19.1
    2008 01 05    05 23.28   +28 16.6    0.114    1.089   157.4    20.3    19.5
    2008 01 07    05 22.20   +30 33.0    0.128    1.100   154.8    22.3    19.8
    2008 01 09    05 21.57   +32 21.8    0.142    1.111   152.4    24.3    20.1
    2008 01 11    05 21.35   +33 49.8    0.156    1.121   150.0    26.0    20.4
    2008 01 13    05 21.48   +35 01.7    0.171    1.132   147.9    27.5    20.7
    2008 01 15    05 21.93   +36 01.0    0.186    1.142   145.8    29.0    20.9
    2008 01 17    05 22.67   +36 50.3    0.201    1.152   143.9    30.2    21.1
    2008 01 19    05 23.68   +37 31.4    0.217    1.162   142.0    31.4    21.3
    2008 01 21    05 24.93   +38 05.8    0.232    1.172   140.2    32.5    21.5
    2008 01 23    05 26.39   +38 34.6    0.248    1.182   138.5    33.5    21.7
    2008 01 25    05 28.05   +38 58.7    0.265    1.191   136.9    34.4    21.9
    
    Timothy B. Spahr             (C) Copyright 2008 MPC           M.P.E.C. 2008-A08
    

    Read MPEC 2008-A07 Read MPEC 2008-A09


    MPEC number:

    Enter an MPEC number in one of the following forms:

    • 1997-B01 (the full form)
    • J97B01 (the packed version of the full form)
    • B01 (the abbreviated form)